Hourly Weather Çayıralan

Today, 15 May, Saturday

Time Temperature Precipitation Wind Pressure Humidity
00:00 +15°C° 0 mm 1 mps 645 mmHg 39%
01:00 +15°C° 0 mm 1 mps 645 mmHg 39%
02:00 +14°C° 0 mm 1 mps 645 mmHg 39%
03:00 +14°C° 0 mm 1 mps 645 mmHg 41%
04:00 +14°C° 0 mm 1 mps 645 mmHg 43%
05:00 +14°C° 0 mm 1 mps 645 mmHg 45%
06:00 +16°C° 0 mm 1 mps 646 mmHg 40%
07:00 +19°C° 0 mm 1 mps 647 mmHg 36%
08:00 +19°C° 0 mm 0 mps 647 mmHg 31%
09:00 +23°C° 0 mm 1 mps 647 mmHg 28%
10:00 +24°C° 0 mm 1 mps 647 mmHg 26%
11:00 +26°C° 0 mm 1 mps 647 mmHg 24%
12:00 +26°C° 0 mm 2 mps 647 mmHg 22%
13:00 +27°C° 0 mm 2 mps 647 mmHg 21%
14:00 +28°C° 0 mm 2 mps 647 mmHg 19%
15:00 +27°C° 0 mm 3 mps 646 mmHg 22%
16:00 +27°C° 0 mm 3 mps 646 mmHg 24%
17:00 +26°C° 0 mm 3 mps 645 mmHg 26%
18:00 +24°C° 0 mm 3 mps 645 mmHg 34%
19:00 +20°C° 0 mm 3 mps 644 mmHg 42%
20:00 +18°C° 0 mm 2 mps 643 mmHg 49%
21:00 +18°C° 0 mm 2 mps 643 mmHg 50%
22:00 +17°C° 0 mm 2 mps 643 mmHg 51%
23:00 +17°C° 0 mm 2 mps 642 mmHg 52%

Tomorrow, 16 May, Sunday

Time Temperature Precipitation Wind Pressure Humidity
00:00 +16°C° 0 mm 2 mps 642 mmHg 53%
01:00 +16°C° 0 mm 2 mps 642 mmHg 53%
02:00 +15°C° 0 mm 2 mps 641 mmHg 54%
03:00 +15°C° 0 mm 2 mps 641 mmHg 57%
04:00 +15°C° 0 mm 1 mps 641 mmHg 59%
05:00 +15°C° 0 mm 1 mps 640 mmHg 61%
06:00 +17°C° 0 mm 2 mps 641 mmHg 53%
07:00 +19°C° 0 mm 2 mps 642 mmHg 46%
08:00 +21°C° 0 mm 2 mps 642 mmHg 38%
09:00 +22°C° 0 mm 3 mps 642 mmHg 33%
10:00 +23°C° 0 mm 4 mps 642 mmHg 28%
11:00 +25°C° 0 mm 5 mps 642 mmHg 24%
12:00 +25°C° 0 mm 5 mps 642 mmHg 24%
13:00 +25°C° 0 mm 5 mps 642 mmHg 23%
14:00 +26°C° 0 mm 5 mps 642 mmHg 23%
15:00 +25°C° 0 mm 5 mps 642 mmHg 26%
16:00 +23°C° 0 mm 5 mps 641 mmHg 28%
17:00 +22°C° 0 mm 4 mps 641 mmHg 31%
18:00 +20°C° 0 mm 4 mps 641 mmHg 36%
19:00 +18°C° 0 mm 3 mps 641 mmHg 41%
20:00 +17°C° 0 mm 3 mps 641 mmHg 46%
21:00 +16°C° 0 mm 2 mps 641 mmHg 51%
22:00 +14°C° 0 mm 2 mps 641 mmHg 55%
23:00 +13°C° 0 mm 2 mps 641 mmHg 59%

Day after tomorrow, 17 May, Monday

Time Temperature Precipitation Wind Pressure Humidity
00:00 +13°C° 0 mm 2 mps 641 mmHg 61%
01:00 +13°C° 0 mm 2 mps 641 mmHg 64%
02:00 +12°C° 0 mm 2 mps 641 mmHg 66%
03:00 +12°C° 0 mm 1 mps 642 mmHg 68%
04:00 +12°C° 0 mm 1 mps 642 mmHg 70%
05:00 +12°C° 0 mm 1 mps 642 mmHg 71%
06:00 +13°C° 0.1 mm 1 mps 642 mmHg 65%
07:00 +14°C° 0.1 mm 2 mps 643 mmHg 59%
08:00 +15°C° 0.1 mm 2 mps 644 mmHg 53%
09:00 +17°C° 0.1 mm 3 mps 644 mmHg 49%
10:00 +18°C° 0.1 mm 3 mps 644 mmHg 45%
11:00 +19°C° 0.1 mm 4 mps 645 mmHg 40%
12:00 +19°C° 0 mm 4 mps 645 mmHg 41%
13:00 +19°C° 0 mm 5 mps 645 mmHg 41%
14:00 +17°C° 0 mm 5 mps 644 mmHg 42%
15:00 +19°C° 0 mm 5 mps 644 mmHg 41%
16:00 +19°C° 0 mm 5 mps 644 mmHg 40%
17:00 +19°C° 0 mm 5 mps 644 mmHg 39%
18:00 +17°C° 0 mm 4 mps 644 mmHg 42%
19:00 +16°C° 0 mm 2 mps 645 mmHg 46%
20:00 +15°C° 0 mm 1 mps 645 mmHg 49%
21:00 +14°C° 0 mm 1 mps 644 mmHg 52%
22:00 +13°C° 0 mm 1 mps 644 mmHg 56%
23:00 +12°C° 0 mm 1 mps 644 mmHg 59%

18 May, Tuesday

Time Temperature Precipitation Wind Pressure Humidity
00:00 +12°C° 0 mm 1 mps 644 mmHg 61%
01:00 +11°C° 0 mm 1 mps 644 mmHg 62%
02:00 +11°C° 0 mm 1 mps 644 mmHg 64%
03:00 +11°C° 0 mm 1 mps 644 mmHg 63%
04:00 +11°C° 0 mm 1 mps 645 mmHg 63%
05:00 +11°C° 0 mm 1 mps 645 mmHg 63%
06:00 +14°C° 0 mm 1 mps 646 mmHg 56%
07:00 +16°C° 0 mm 2 mps 646 mmHg 48%
08:00 +18°C° 0 mm 2 mps 647 mmHg 41%
09:00 +19°C° 0 mm 3 mps 648 mmHg 39%
10:00 +21°C° 0 mm 3 mps 648 mmHg 37%
11:00 +22°C° 0 mm 4 mps 648 mmHg 36%
12:00 +22°C° 0 mm 4 mps 648 mmHg 35%
13:00 +23°C° 0 mm 4 mps 648 mmHg 34%
14:00 +25°C° 0 mm 4 mps 648 mmHg 33%
15:00 +23°C° 0 mm 4 mps 648 mmHg 34%
16:00 +24°C° 0 mm 3 mps 648 mmHg 35%
17:00 +24°C° 0 mm 3 mps 648 mmHg 35%
18:00 +21°C° 0 mm 2 mps 647 mmHg 41%
19:00 +19°C° 0 mm 2 mps 647 mmHg 46%
20:00 +18°C° 0 mm 1 mps 647 mmHg 51%
21:00 +16°C° 0 mm 1 mps 647 mmHg 52%
22:00 +16°C° 0 mm 1 mps 647 mmHg 53%
23:00 +15°C° 0 mm 1 mps 647 mmHg 54%

19 May, Wednesday

Time Temperature Precipitation Wind Pressure Humidity
00:00 +15°C° 0 mm 1 mps 646 mmHg 55%
01:00 +15°C° 0 mm 1 mps 646 mmHg 56%
02:00 +14°C° 0 mm 2 mps 646 mmHg 56%
03:00 +14°C° 0 mm 2 mps 646 mmHg 57%
04:00 +15°C° 0 mm 2 mps 646 mmHg 58%
05:00 +15°C° 0 mm 2 mps 646 mmHg 59%
06:00 +17°C° 0 mm 2 mps 647 mmHg 52%
07:00 +20°C° 0 mm 2 mps 648 mmHg 45%
08:00 +23°C° 0 mm 2 mps 648 mmHg 39%
09:00 +24°C° 0 mm 2 mps 648 mmHg 35%
10:00 +26°C° 0 mm 2 mps 648 mmHg 31%
11:00 +27°C° 0 mm 2 mps 648 mmHg 27%
12:00 +28°C° 0 mm 3 mps 648 mmHg 26%
13:00 +29°C° 0 mm 3 mps 648 mmHg 24%
14:00 +29°C° 0 mm 3 mps 648 mmHg 23%
15:00 +29°C° 0 mm 3 mps 647 mmHg 24%
16:00 +29°C° 0 mm 2 mps 647 mmHg 25%
17:00 +29°C° 0 mm 2 mps 647 mmHg 26%
18:00 +26°C° 0 mm 2 mps 646 mmHg 31%
19:00 +24°C° 0 mm 1 mps 646 mmHg 35%
20:00 +21°C° 0 mm 1 mps 645 mmHg 40%
21:00 +21°C° 0 mm 1 mps 645 mmHg 42%
22:00 +20°C° 0 mm 1 mps 645 mmHg 45%
23:00 +19°C° 0 mm 1 mps 645 mmHg 47%

20 May, Thursday

Time Temperature Precipitation Wind Pressure Humidity
00:00 +19°C° 0 mm 1 mps 644 mmHg 49%
01:00 +19°C° 0 mm 1 mps 644 mmHg 51%
02:00 +18°C° 0 mm 1 mps 644 mmHg 53%
03:00 +18°C° 0 mm 1 mps 644 mmHg 55%
04:00 +18°C° 0 mm 1 mps 644 mmHg 56%
05:00 +18°C° 0 mm 1 mps 644 mmHg 57%
06:00 +19°C° 0 mm 2 mps 645 mmHg 50%
07:00 +23°C° 0 mm 2 mps 645 mmHg 43%
08:00 +25°C° 0 mm 2 mps 646 mmHg 36%
09:00 +26°C° 0 mm 3 mps 646 mmHg 33%
10:00 +28°C° 0 mm 3 mps 646 mmHg 30%
11:00 +29°C° 0 mm 4 mps 646 mmHg 27%
12:00 +30°C° 0 mm 5 mps 646 mmHg 25%
13:00 +30°C° 0 mm 5 mps 646 mmHg 22%
14:00 +32°C° 0 mm 5 mps 646 mmHg 20%
15:00 +30°C° 0 mm 5 mps 645 mmHg 21%
16:00 +29°C° 0 mm 5 mps 645 mmHg 23%
17:00 +28°C° 0 mm 4 mps 645 mmHg 25%
18:00 +26°C° 0 mm 3 mps 645 mmHg 29%
19:00 +23°C° 0 mm 2 mps 644 mmHg 34%
20:00 +21°C° 0 mm 1 mps 644 mmHg 38%
21:00 +20°C° 0 mm 1 mps 644 mmHg 39%
22:00 +20°C° 0 mm 1 mps 643 mmHg 41%
23:00 +19°C° 0 mm 1 mps 643 mmHg 42%
Show more

We Need Your Consent

Meteoprog and our Service Providers may store and access personal data such as cookies, device identifiers or other similar technologies on your device and process such data to personalise content and ads, as well as provide social media features and to analyse the traffic.

  • Store and/or access information on your device

    Cookies, device identifiers or other information can be stored or accessed on your device for the purposes indicated above.

  • Personalised ads and content, ad and content measurement, audience insights, and products development

    Ads and content can be personalised based on a profile. More data can be added to better personalise ads and content. Ad and content performance can be measured. Insights about the audience who saw the ads and content can be derived. Such data can be used to develop or improve user’s experience, systems and software.

By clicking ‘I Agree’ you will allow the use of indicated cookies, device identifiers, web beacons or other similar technologies. Your settings can be changed in the browser on your device.

For certain purposes, legitimate interests may be relied on, rather than consent. You can read more about this in our Privacy and Cookie Policy.